Location: Waning Moon II Observatory
(30.3730°N, 89.7620°W)
Time: 00:28:10
(UTC-05:00)

Cosmos 1825 Rocket - Visible Passes

Search period start: 26 March 2017 00:00
Search period end: 05 April 2017 00:00
Orbit: 605 x 630 km, 82.5° (Epoch: 24 March)

Date Brightness Start Highest point End Pass type
(mag) Time Alt. Az. Time Alt. Az. Time Alt. Az.
28 Mar 6.9 06:05:59 10° ESE 06:08:32 15° E 06:11:06 10° NE visible
28 Mar 7.2 19:35:40 10° WNW 19:37:44 13° W 19:39:49 10° WSW visible
29 Mar 5.9 06:21:26 10° SSE 06:25:17 30° E 06:29:10 10° NNE visible
01 Apr 6.7 05:35:54 10° SE 05:38:31 16° E 05:41:09 10° NE visible
02 Apr 5.7 05:51:24 10° SSE 05:55:16 30° E 05:59:10 10° NNE visible
03 Apr 4.2 06:07:43 10° S 06:12:06 63° E 06:16:31 10° NNE visible
